Location: *
(43.9905°S, 176.4941°W)
Time: 15:46:42
(UTC+00:00)

CZ-4 R/B - Pass Details

Date: 08 December 2019
Orbit: 682 x 752 km, 98.5° (Epoch: 18 January)

Event Time Altitude Azimuth Distance (km) Brightness Sun altitude
Exits shadow 10:59:37 57° 351° (N) 885 3.9 -22.7°
Maximum altitude 11:00:35 77° 284° (WNW) 780 3.9 -22.8°
Drops below altitude 10° 11:05:38 10° 197° (SSW) 2,278 7.5 -22.9°
Sets 11:07:55 0° 195° (SSW) 3,199 8.7 -22.9°
